This is the latest recevied weather packets stored in our database for station/object W6ORV. If no packets are shown the sender has not sent any weather packets the latest 10 day(s).
| Time | Temp. | Humidity | Pressure | Rain* | Wind** | Luminosity | Snow |
|---|---|---|---|---|---|---|---|
| 1777590358 | 28.89° C | 37% | 4295.9 hPa | 0 mm | - | 573 W/m² | - |
| 1777590055 | 28.89° C | 37% | 4295.9 hPa | 0 mm | - | 584 W/m² | - |
| 1777589751 | 29.44° C | 35% | 4295.8 hPa | 0 mm | - | 604 W/m² | - |
| 1777589450 | 30.56° C | 32% | 4295.8 hPa | 0 mm | - | 619 W/m² | - |
| 1777589146 | 29.44° C | 31% | 4295.9 hPa | 0 mm | - | 628 W/m² | - |
| 1777588842 | 29.44° C | 30% | 4295.9 hPa | 0 mm | - | 638 W/m² | - |
| 1777588538 | 28.89° C | 31% | 4295.9 hPa | 0 mm | - | 647 W/m² | - |
| 1777588234 | 29.44° C | 31% | 4296.1 hPa | 0 mm | - | 658 W/m² | - |
| 1777587929 | 28.89° C | 31% | 4296.1 hPa | 0 mm | - | 658 W/m² | - |
| 1777587625 | 29.44° C | 31% | 4296.2 hPa | 0 mm | - | 665 W/m² | - |
| 1777587320 | 30° C | 29% | 4296.2 hPa | 0 mm | - | 674 W/m² | - |
| 1777587015 | 29.44° C | 30% | 4296.4 hPa | 0 mm | - | 684 W/m² | - |
| 1777586711 | 28.89° C | 30% | 4296.6 hPa | 0 mm | - | 701 W/m² | - |
| 1777586408 | 29.44° C | 29% | 4296.5 hPa | 0 mm | - | 705 W/m² | - |
| 1777586107 | 29.44° C | 30% | 4296.6 hPa | 0 mm | - | 692 W/m² | - |
| 1777585805 | 29.44° C | 31% | 4296.7 hPa | 0 mm | - | 690 W/m² | - |
| 1777585505 | 29.44° C | 32% | 4296.4 hPa | 0 mm | - | 707 W/m² | - |
| 1777585201 | 29.44° C | 31% | 4296.5 hPa | 0 mm | - | 721 W/m² | - |
| 1777584897 | 28.89° C | 33% | 4296.8 hPa | 0 mm | - | 712 W/m² | - |
| 1777584595 | 28.89° C | 33% | 4296.8 hPa | 0 mm | - | 723 W/m² | - |
| 1777584291 | 28.89° C | 30% | 4297 hPa | 0 mm | - | 739 W/m² | - |
| 1777583987 | 27.78° C | 32% | 4296.8 hPa | 0 mm | - | 746 W/m² | - |
| 1777583681 | 29.44° C | 30% | 4297 hPa | 0 mm | - | 732 W/m² | - |
| 1777583381 | 30° C | 30% | 4296.9 hPa | 0 mm | - | 757 W/m² | - |
| 1777583080 | 28.33° C | 32% | 4297.2 hPa | 0 mm | - | 753 W/m² | - |
* Rain latest hour (hover to see other rain measurements)
** Current wind speed in m/s (hover to see current wind gust speed)